Powrót do katalogu

STARLINK-33570

AktywnyŁącznośćVLEO
NORAD 62776·PAYLOAD·🇺🇸 United States

Wystrzelony Jan 21, 2025 z Vandenberg Space Force Base

Loading…

Następne Przeloty (najbliższe 24 godziny)

TLE

ŚwieżeSource: CelesTrak SupGP

Epoka: Sep 14, 2026, 20:56 UTC

1 62776C 25015U   26257.87270833 -.00018624  00000+0 -55044-3 0  2571
2 62776  53.1564 159.8347 0001354 114.8755 139.9833 15.34388702    13

Śledź STARLINK-33570 w czasie rzeczywistym z AllMySat

Download on the App Store